Regional Weather Roundup
Issued by NWS

Home | Current Version | Previous Version | Text Only | Print | Product List | Glossary Off
Versions: 1 2 3 4 5 6 7 8 9 10 11 12 13 14 15 16 17 18 19 20 21 22 23 24 25 26 27 28 29 30 31 32 33 34 35 36 37 38 39 40 41 42 43 44 45 46 47 48 49 50

747
ASUS43 KDTX 192210
RWRMI
MICHIGAN HOURLY REGIONAL WEATHER ROUNDUP
NATIONAL WEATHER SERVICE DETROIT/PONTIAC MI
600 PM EDT TUE SEP 19 2017

NOTE: "FAIR" INDICATES FEW OR NO CLOUDS BELOW 12,000 FEET WITH NO
SIGNIFICANT WEATHER AND/OR OBSTRUCTION TO VISIBILITY.

MIZ047>049-052>055-059>063-066>070-074>076-081>083-192300-
SOUTHEAST LOWER MICHIGAN

CITY           SKY/WX    TMP DP  RH WIND       PRES   REMARKS
ADRIAN         CLOUDY    71  65  81 SE6       29.95S
ALMA           CLOUDY    71  62  72 N9        29.97S
ANN ARBOR      CLOUDY    71  67  87 E6        29.94F
BAD AXE        CLOUDY    68  65  89 NE7       29.98F
CARO           CLOUDY    69  64  84 E3        29.97S
DETROIT CITY   CLOUDY    70  69  97 E6        29.95F FOG
DETROIT        LGT RAIN  70  68  93 SE3       29.96S FOG
FLINT          CLOUDY    70  64  81 N6        29.96S
GROSSE ILE     CLOUDY    69  67  93 E3        29.94S
HILLSDALE      CLOUDY    68  64  88 E6        29.94S
HOWELL         CLOUDY    69  65  88 CALM      29.95S

CITY           SKY/WX    TMP DP  RH WIND       PRES   REMARKS
JACKSON        CLOUDY    71  65  81 NE3       29.94F
LAMBERTVILLE   CLOUDY    72  68  89 E3        29.94S FOG
LANSING        CLOUDY    71  61  70 NE7       29.95F
LAPEER         CLOUDY    70  65  83 CALM      29.97S
MASON          CLOUDY    72  65  78 NE5       29.94F
MONROE           N/A     71  68  89 E5        29.94S FOG
MT. CLEMENS    LGT RAIN  69  69 100 E5        29.94S FOG
PONTIAC        CLOUDY    71  66  84 SE6       29.94F
PORT HOPE        N/A     67  65  93 E9        29.97F
PORT HURON     LGT RAIN  72  68  88 E5        29.97S
TRI CITIES     CLOUDY    68  65  90 NE10      29.99R
MIDLAND        CLOUDY    68  63  82 NE5       29.98S
TROY           CLOUDY    70  67  92 CALM      29.97F FOG
SAGINAW HB     CLOUDY    70  63  78 NE5       29.97S
$$
MIZ043>046-050>051-056>058-064>065-071>073-077>080-192300-
SOUTHWEST LOWER MICHIGAN

CITY           SKY/WX    TMP DP  RH WIND       PRES   REMARKS
BATTLE CREEK   CLOUDY    71  65  81 E6        29.95R
BENTON HARBOR  MOSUNNY   76  64  66 E6        29.92F
BIG RAPIDS     CLOUDY    71  58  65 E7        29.97S
COLDWATER      CLOUDY    69  69 100 E5        29.93S
FREMONT        PTSUNNY   74  60  61 SE8       29.95F
HOLLAND        PTSUNNY   76  60  57 E7        29.94F
GRAND RAPIDS   CLOUDY    73  61  65 NE8       29.95S
IONIA          FAIR      72  59  65 E6        29.95S
KALAMAZOO      CLOUDY    71  62  73 NE3       29.94S
LUDINGTON      SUNNY     71  59  64 NW6       29.94F
MARSHALL       CLOUDY    71  66  86 E5        29.94S
MOUNT PLEASANT CLOUDY    70  61  73 E6        29.98S
MUSKEGON       CLOUDY    76  60  57 E5        29.94F
SOUTH HAVEN    PTSUNNY   75  63  66 NE6       29.93S
$$
MIZ016>042-192300-
NORTHERN LOWER MICHIGAN

CITY           SKY/WX    TMP DP  RH WIND       PRES   REMARKS
ALPENA         CLOUDY    68  59  73 NE8       30.03S
BEAVER ISLAND  SUNNY     68  58  68 E8        30.00S
BELLAIRE       SUNNY     76  47  35 SE6       29.97S
CADILLAC       SUNNY     75  48  38 E7        29.98S
CHARLEVOIX     SUNNY     74  54  49 E7        30.00F
FRANKFORT      SUNNY     74  56  54 NW3       29.95F
GAYLORD        SUNNY     71  52  50 E5        30.00F
GRAYLING       SUNNY     73  53  50 NE7       30.00S
HARBOR SPRINGS SUNNY     71  56  58 NE8       29.98F
HOUGHTON LAKE  CLOUDY    72  57  59 E5        30.00S
MANISTEE       SUNNY     76  56  49 CALM      29.94F
OSCODA         CLOUDY    66  59  79 NE9       30.01R
PELLSTON       SUNNY     71  57  61 E12       30.00F
ROGERS CITY    SUNNY     65  58  78 E8        30.03F
TRAVERSE CITY  MOSUNNY   74  53  48 NE6       29.95F
$$
MIZ007>008-015-192300-
EASTERN UPPER MICHIGAN

CITY           SKY/WX    TMP DP  RH WIND       PRES   REMARKS
KINROSS        SUNNY     69  43  38 E13       30.02F
MACKINAC ISLAN SUNNY     65  56  73 E9        30.01F
NEWBERRY       SUNNY     70  40  33 SE8       30.00F
S. S. MARIE    SUNNY     72  50  45 SE7       30.01F
MUNISING         N/A     73  54  51 VRB7      29.97F
$$
MIZ004>006-011>014-085-192300-
CENTRAL UPPER MICHIGAN

CITY           SKY/WX    TMP DP  RH WIND       PRES   REMARKS
MANISTIQUE     SUNNY     67  53  61 SE12      30.00S
ESCANABA       SUNNY     67  58  72 SE9       29.99S
MENOMINEE      SUNNY     70  59  68 E8        29.97F
SAWYER-GWINN   MOSUNNY   70  54  56 S12       29.99F
$$
MIZ001>003-009>011-084-192300-
WESTERN UPPER MICHIGAN

CITY           SKY/WX    TMP DP  RH WIND       PRES   REMARKS
IRON MOUNTAIN  MOSUNNY   72  56  57 SE12      29.96F
HOUGHTON       SUNNY     65  53  65 E10       29.95F
COPPER HARBOR    N/A     67  51  56 S7        29.95F
IRONWOOD       MOSUNNY   74  57  55 SE13      29.89F
$$

ABBREVIATIONS USED IN REMARKS
   TC - TEMPERATURE IN CELSIUS
  WCI - WIND CHILL INDEX
   HX - HEAT INDEX
  VSB - VISIBILITY





USA.gov is the U.S. government's official web portal to all federal, state and local government web resources and services.